This demonstration page uses our WeatherBlox Daily Observations layout. Learn more.

Left ArrowRight Arrow

Hourly Observations for September 27, 2017

Temp ( °F °C ) Dew Point ( °F °C ) Humidity (%) Winds ( mph kmh ) Pressure ( in mb ) Visibility ( mi km ) Precip ( " mm )
12:54 am 00:54 Clear 53 11.7 50 10 89 89 N 5 7 30.2 1023 10 16.0934 0 0
1:54 am 01:54 Clear 52 11.1 49 9.4 89 89 N 5 7 30.21 1023 10 16.0934 0 0
2:54 am 02:54 Clear 51 10.6 49 9.4 92 92 Calm 30.21 1023 10 16.0934 0 0
3:54 am 03:54 Clear 50 10 48 8.9 93 93 Calm 30.22 1023 10 16.0934 0 0
4:54 am 04:54 Clear 48 8.9 46 7.8 93 93 N 6 9 30.23 1024 10 16.0934 0 0
5:54 am 05:54 Clear 47 8.3 45 7.2 93 93 N 5 7 30.24 1024 10 16.0934 0 0
6:54 am 06:54 Clear 48 8.9 46 7.8 93 93 Calm 30.27 1025 10 16.0934 0 0
7:54 am 07:54 Sunny 47 8.3 45 7.2 93 93 N 3 6 30.28 1026 10 16.0934 0 0
8:54 am 08:54 Sunny 51 10.6 48 8.9 89 89 N 5 7 30.29 1026 10 16.0934 0 0
9:54 am 09:54 Sunny 55 12.8 51 10.6 87 87 Calm 30.31 1026 10 16.0934 0 0
10:54 am 10:54 Sunny 59 15 52 11.1 78 78 N 3 6 30.31 1026 10 16.0934 0 0
11:54 am 11:54 Sunny 63 17.2 49 9.4 60 60 Calm 30.29 1026 10 16.0934 0 0
12:54 pm 12:54 Sunny 66 18.9 46 7.8 49 49 Calm 30.29 1026 10 16.0934 0 0
1:54 pm 13:54 Sunny 67 19.4 46 7.8 47 47 S 6 9 30.27 1025 10 16.0934 0 0
2:54 pm 14:54 Sunny 70 21.1 46 7.8 42 42 SW 5 7 30.25 1024 10 16.0934 0 0
3:54 pm 15:54 Sunny 71 21.7 46 7.8 41 41 Calm 30.23 1024 10 16.0934 0 0
4:54 pm 16:54 Sunny 74 23.3 46 7.8 37 37 VRB 3 6 30.23 1024 10 16.0934 0 0
5:54 pm 17:54 Sunny 72 22.2 45 7.2 38 38 Calm 30.22 1023 10 16.0934 0 0
6:54 pm 18:54 Sunny 69 20.6 47 8.3 45 45 S 3 6 30.22 1024 10 16.0934 0 0
7:54 pm 19:54 Clear 64 17.8 50 10 60 60 S 3 6 30.23 1024 10 16.0934 0 0
8:54 pm 20:54 Clear 60 15.6 49 9.4 67 67 S 5 7 30.24 1024 10 16.0934 0 0
9:54 pm 21:54 Clear 59 15 50 10 72 72 SSE 3 6 30.23 1024 10 16.0934 0 0
10:54 pm 22:54 Clear 58 14.4 48 8.9 70 70 Calm 30.23 1024 10 16.0934 0 0
11:54 pm 23:54 Clear 53 11.7 48 8.9 83 83 Calm 30.25 1024 9 14.48406 0 0

Powered by AerisWeather